| time (UTC) | temp F | wind direction | speed MPH | gust MPH | rain 1hr in | rain 24hr in | rain mn in | humidity % | barometer mb |
| 20260507103950 | 29 | 263 | 4.0 | 4.0 | 0.00 | 0.00 | 0.00 | 65 | |
| 20260507103447 | 29 | 275 | 4.0 | 4.0 | 0.00 | 0.00 | 0.00 | 65 | |
| 20260507102943 | 29 | 278 | 5.0 | 5.0 | 0.00 | 0.00 | 0.00 | 66 | |
| 20260507102440 | 29 | 292 | 3.0 | 3.0 | 0.00 | 0.00 | 0.00 | 65 | |
| 20260507101937 | 29 | 279 | 2.0 | 3.0 | 0.00 | 0.00 | 0.00 | 65 | |
| 20260507101432 | 29 | 279 | 2.0 | 3.0 | 0.00 | 0.00 | 0.00 | 64 | |
| 20260507100928 | 30 | 275 | 3.0 | 3.0 | 0.00 | 0.00 | 0.00 | 64 | |
| 20260507100426 | 29 | 315 | 3.0 | 4.0 | 0.00 | 0.00 | 0.00 | 64 | |
| 20260507095924 | 29 | 1 | 5.0 | 5.0 | 0.00 | 0.00 | 0.00 | 64 | |
| 20260507095421 | 30 | 14 | 0.0 | 2.0 | 0.00 | 0.00 | 0.00 | 64 | |
| 20260507094918 | 30 | 35 | 2.0 | 2.0 | 0.00 | 0.00 | 0.00 | 63 | |
| 20260507094414 | 31 | 52 | 1.0 | 2.0 | 0.00 | 0.00 | 0.00 | 61 | |
| 20260507093911 | 32 | 224 | 0.0 | 3.0 | 0.00 | 0.00 | 0.00 | 60 | |
| 20260507093409 | 32 | 251 | 5.0 | 6.0 | 0.00 | 0.00 | 0.00 | 60 | |
| 20260507092907 | 32 | 261 | 4.0 | 5.0 | 0.00 | 0.00 | 0.00 | 59 | |
| 20260507092403 | 33 | 218 | 4.0 | 5.0 | 0.00 | 0.00 | 0.00 | 58 | |
| 20260507091900 | 33 | 219 | 4.0 | 8.0 | 0.00 | 0.00 | 0.00 | 58 | |
| 20260507091356 | 33 | 214 | 6.0 | 7.0 | 0.00 | 0.00 | 0.00 | 58 | |
| 20260507090852 | 33 | 217 | 8.0 | 11.0 | 0.00 | 0.00 | 0.00 | 58 | |
| 20260507090348 | 33 | 214 | 4.0 | 9.0 | 0.00 | 0.00 | 0.00 | 57 | |
| 20260507085845 | 33 | 226 | 4.0 | 6.0 | 0.00 | 0.00 | 0.00 | 57 | |
| 20260507085342 | 34 | 204 | 5.0 | 7.0 | 0.00 | 0.00 | 0.00 | 56 | |
| 20260507084840 | 34 | 224 | 6.0 | 8.0 | 0.00 | 0.00 | 0.00 | 56 | |
| 20260507084336 | 34 | 219 | 4.0 | 7.0 | 0.00 | 0.00 | 0.00 | 56 | |
| 20260507083834 | 34 | 226 | 7.0 | 8.0 | 0.00 | 0.00 | 0.00 | 56 | |
| 20260507083330 | 34 | 221 | 3.0 | 5.0 | 0.00 | 0.00 | 0.00 | 56 | |
| 20260507082826 | 33 | 185 | 2.0 | 5.0 | 0.00 | 0.00 | 0.00 | 58 | |
| 20260507082321 | 32 | 246 | 0.0 | 4.0 | 0.00 | 0.00 | 0.00 | 58 | |
| 20260507081819 | 32 | 312 | 1.0 | 2.0 | 0.00 | 0.00 | 0.00 | 59 | |
| 20260507081315 | 32 | 346 | 3.0 | 4.0 | 0.00 | 0.00 | 0.00 | 60 | |
| 20260507080812 | 32 | 28 | 4.0 | 5.0 | 0.00 | 0.00 | 0.00 | 60 | |
| 20260507080308 | 31 | 27 | 2.0 | 3.0 | 0.00 | 0.00 | 0.00 | 59 | |
| 20260507075803 | 32 | 7 | 1.0 | 2.0 | 0.00 | 0.00 | 0.00 | 58 | |
| 20260507075259 | 32 | 224 | 0.0 | 2.0 | 0.00 | 0.00 | 0.00 | 57 | |
| 20260507074756 | 33 | 238 | 1.0 | 2.0 | 0.00 | 0.00 | 0.00 | 56 | |
| 20260507074255 | 33 | 3 | 1.0 | 2.0 | 0.00 | 0.00 | 0.00 | 55 | |
| 20260507073751 | 33 | 325 | 2.0 | 3.0 | 0.00 | 0.00 | 0.00 | 55 | |
| 20260507073247 | 34 | 310 | 3.0 | 3.0 | 0.00 | 0.00 | 0.00 | 52 | |
| 20260507072745 | 35 | 205 | 4.0 | 6.0 | 0.00 | 0.00 | 0.00 | 53 | |
| 20260507072242 | 34 | 247 | 2.0 | 5.0 | 0.00 | 0.00 | 0.00 | 53 | |
| 20260507071740 | 35 | 277 | 4.0 | 5.0 | 0.00 | 0.00 | 0.00 | 51 | |
| 20260507071236 | 35 | 306 | 2.0 | 5.0 | 0.00 | 0.00 | 0.00 | 51 | |
| 20260507070733 | 35 | 240 | 4.0 | 5.0 | 0.00 | 0.00 | 0.00 | 51 | |
| 20260507070230 | 35 | 283 | 2.0 | 3.0 | 0.00 | 0.00 | 0.00 | 51 | |
| 20260507065726 | 35 | 260 | 4.0 | 9.0 | 0.00 | 0.00 | 0.00 | 51 | |
| 20260507065223 | 35 | 263 | 7.0 | 8.0 | 0.00 | 0.00 | 0.00 | 51 | |
| 20260507064721 | 35 | 257 | 5.0 | 8.0 | 0.00 | 0.00 | 0.00 | 51 | |
| 20260507064220 | 35 | 256 | 6.0 | 6.0 | 0.00 | 0.00 | 0.00 | 51 | |
| 20260507063716 | 35 | 256 | 4.0 | 4.0 | 0.00 | 0.00 | 0.00 | 51 | |
| 20260507063213 | 35 | 256 | 6.0 | 6.0 | 0.00 | 0.00 | 0.00 | 51 | |
| 20260507062710 | 34 | 272 | 5.0 | 6.0 | 0.00 | 0.00 | 0.00 | 53 | |
| 20260507062208 | 34 | 298 | 2.0 | 4.0 | 0.00 | 0.00 | 0.00 | 52 | |
| 20260507061705 | 35 | 232 | 3.0 | 5.0 | 0.00 | 0.00 | 0.00 | 51 | |
| 20260507061203 | 35 | 183 | 4.0 | 5.0 | 0.00 | 0.00 | 0.00 | 51 | |
| 20260507060701 | 35 | 191 | 8.0 | 9.0 | 0.00 | 0.00 | 0.00 | 50 | |
| 20260507060157 | 35 | 180 | 6.0 | 8.0 | 0.00 | 0.00 | 0.00 | 49 | |
| 20260507055653 | 35 | 187 | 8.0 | 9.0 | 0.00 | 0.00 | 0.00 | 49 | |
| 20260507055149 | 35 | 182 | 8.0 | 9.0 | 0.00 | 0.00 | 0.00 | 49 | |
| 20260507054645 | 35 | 177 | 7.0 | 8.0 | 0.00 | 0.00 | 0.00 | 49 | |
| 20260507054142 | 33 | 168 | 7.0 | 8.0 | 0.00 | 0.00 | 0.00 | 52 | |
| 20260507053640 | 31 | 166 | 3.0 | 3.0 | 0.00 | 0.00 | 0.00 | 54 | |
| 20260507053138 | 31 | 19 | 1.0 | 2.0 | 0.00 | 0.00 | 0.00 | 53 | |
| 20260507052636 | 32 | 80 | 1.0 | 2.0 | 0.00 | 0.00 | 0.00 | 52 | |
| 20260507052132 | 32 | 92 | 2.0 | 2.0 | 0.00 | 0.00 | 0.00 | 50 | |
| 20260507051630 | 33 | 122 | 2.0 | 3.0 | 0.00 | 0.00 | 0.00 | 48 | |
| 20260507051126 | 33 | 95 | 3.0 | 5.0 | 0.00 | 0.00 | 0.00 | 47 | |
| 20260507050623 | 33 | 108 | 4.0 | 5.0 | 0.00 | 0.00 | 0.00 | 47 | |
| 20260507050120 | 33 | 102 | 5.0 | 6.0 | 0.00 | 0.00 | 0.00 | 47 | |
| 20260507045617 | 32 | 92 | 4.0 | 5.0 | 0.00 | 0.00 | 0.00 | 48 | |
| 20260507045113 | 33 | 103 | 3.0 | 5.0 | 0.00 | 0.00 | 0.00 | 49 | |
| 20260507044610 | 33 | 103 | 3.0 | 5.0 | 0.00 | 0.00 | 0.00 | 49 | |
| 20260507044108 | 33 | 101 | 4.0 | 5.0 | 0.00 | 0.00 | 0.00 | 48 | |
| 20260507043603 | 33 | 97 | 5.0 | 5.0 | 0.00 | 0.00 | 0.00 | 48 | |
| 20260507043101 | 33 | 103 | 4.0 | 5.0 | 0.00 | 0.00 | 0.00 | 45 | |
| 20260507042556 | 33 | 97 | 3.0 | 3.0 | 0.00 | 0.00 | 0.00 | 46 | |
| 20260507042052 | 35 | 84 | 4.0 | 4.0 | 0.00 | 0.00 | 0.00 | 44 | |
| 20260507041549 | 35 | 105 | 4.0 | 6.0 | 0.00 | 0.00 | 0.00 | 43 | |
| 20260507041046 | 34 | 111 | 4.0 | 6.0 | 0.00 | 0.00 | 0.00 | 43 | |
| 20260507040543 | 35 | 111 | 3.0 | 4.0 | 0.00 | 0.00 | 0.00 | 41 | |
| 20260507040039 | 36 | 110 | 3.0 | 4.0 | 0.00 | 0.00 | 0.00 | 41 | |
| 20260507035535 | 37 | 121 | 2.0 | 3.0 | 0.00 | 0.00 | 0.00 | 39 | |
| 20260507035031 | 37 | 89 | 3.0 | 5.0 | 0.00 | 0.00 | 0.00 | 38 | |
| 20260507034528 | 38 | 109 | 4.0 | 4.0 | 0.00 | 0.00 | 0.00 | 36 | |
| 20260507034026 | 39 | 109 | 3.0 | 4.0 | 0.00 | 0.00 | 0.00 | 36 | |
| 20260507033524 | 39 | 126 | 3.0 | 4.0 | 0.00 | 0.00 | 0.00 | 36 | |
| 20260507033021 | 39 | 114 | 3.0 | 4.0 | 0.00 | 0.00 | 0.00 | 36 | |
| 20260507032518 | 38 | 132 | 4.0 | 5.0 | 0.00 | 0.00 | 0.00 | 37 | |
| 20260507032014 | 37 | 125 | 3.0 | 4.0 | 0.00 | 0.00 | 0.00 | 38 | |
| 20260507031510 | 38 | 113 | 2.0 | 3.0 | 0.00 | 0.00 | 0.00 | 38 | |
| 20260507031008 | 39 | 141 | 2.0 | 3.0 | 0.00 | 0.00 | 0.00 | 37 | |
| 20260507030504 | 40 | 120 | 2.0 | 2.0 | 0.00 | 0.00 | 0.00 | 37 | |
| 20260507030002 | 41 | 132 | 2.0 | 4.0 | 0.00 | 0.00 | 0.00 | 37 | |
| 20260507025459 | 41 | 91 | 3.0 | 5.0 | 0.00 | 0.00 | 0.00 | 38 | |
| 20260507024956 | 41 | 100 | 3.0 | 4.0 | 0.00 | 0.00 | 0.00 | 38 | |
| 20260507024454 | 41 | 94 | 5.0 | 5.0 | 0.00 | 0.00 | 0.00 | 35 | |
| 20260507023949 | 42 | 71 | 6.0 | 7.0 | 0.00 | 0.00 | 0.00 | 34 | |
| 20260507023446 | 42 | 71 | 6.0 | 6.0 | 0.00 | 0.00 | 0.00 | 34 | |
| 20260507022943 | 43 | 58 | 6.0 | 6.0 | 0.00 | 0.00 | 0.00 | 34 | |
| 20260507022441 | 44 | 45 | 4.0 | 5.0 | 0.00 | 0.00 | 0.00 | 33 | |
| 20260507021936 | 44 | 56 | 4.0 | 6.0 | 0.00 | 0.00 | 0.00 | 32 | |
| 20260507021431 | 45 | 59 | 3.0 | 4.0 | 0.00 | 0.00 | 0.00 | 32 | |
| 20260507020930 | 46 | 64 | 4.0 | 5.0 | 0.00 | 0.00 | 0.00 | 31 | |
| 20260507020426 | 47 | 45 | 5.0 | 6.0 | 0.00 | 0.00 | 0.00 | 30 | |
| 20260507015923 | 48 | 39 | 6.0 | 6.0 | 0.00 | 0.00 | 0.00 | 29 | |
| 20260507015421 | 48 | 27 | 5.0 | 5.0 | 0.00 | 0.00 | 0.00 | 29 | |
| 20260507014918 | 49 | 25 | 5.0 | 5.0 | 0.00 | 0.00 | 0.00 | 28 | |
| 20260507014414 | 50 | 28 | 4.0 | 6.0 | 0.00 | 0.00 | 0.00 | 27 | |
| 20260507013910 | 51 | 22 | 5.0 | 7.0 | 0.00 | 0.00 | 0.00 | 26 | |
| 20260507013408 | 51 | 22 | 6.0 | 8.0 | 0.00 | 0.00 | 0.00 | 25 | |
| 20260507012905 | 52 | 9 | 6.0 | 9.0 | 0.00 | 0.00 | 0.00 | 25 | |
| 20260507012401 | 52 | 11 | 8.0 | 9.0 | 0.00 | 0.00 | 0.00 | 24 | |
| 20260507011859 | 52 | 0 | 9.0 | 10.0 | 0.00 | 0.00 | 0.00 | 24 | |
| 20260507011355 | 53 | 1 | 11.0 | 12.0 | 0.00 | 0.00 | 0.00 | 22 | |
| 20260507010855 | 54 | 358 | 13.0 | 16.0 | 0.00 | 0.00 | 0.00 | 22 | |
| 20260507010351 | 54 | 339 | 6.0 | 13.0 | 0.00 | 0.00 | 0.00 | 23 | |
| 20260507005848 | 54 | 337 | 10.0 | 15.0 | 0.00 | 0.00 | 0.00 | 23 | |
| 20260507005345 | 54 | 351 | 6.0 | 14.0 | 0.00 | 0.00 | 0.00 | 23 | |
| 20260507004842 | 54 | 343 | 6.0 | 10.0 | 0.00 | 0.00 | 0.00 | 23 | |
| 20260507004339 | 54 | 311 | 9.0 | 10.0 | 0.00 | 0.00 | 0.00 | 22 | |
| 20260507003836 | 55 | 322 | 13.0 | 15.0 | 0.00 | 0.00 | 0.00 | 21 | |
| 20260507003331 | 55 | 304 | 10.0 | 14.0 | 0.00 | 0.00 | 0.00 | 22 | |
| 20260507002826 | 55 | 318 | 7.0 | 12.0 | 0.00 | 0.00 | 0.00 | 22 | |
| 20260507002323 | 55 | 339 | 6.0 | 10.0 | 0.00 | 0.00 | 0.00 | 22 | |
| 20260507001820 | 55 | 302 | 11.0 | 14.0 | 0.00 | 0.00 | 0.00 | 22 | |
| 20260507001317 | 55 | 299 | 9.0 | 14.0 | 0.00 | 0.00 | 0.00 | 21 | |
| 20260507000813 | 55 | 355 | 6.0 | 14.0 | 0.00 | 0.00 | 0.00 | 22 | |
| 20260507000309 | 54 | 340 | 11.0 | 18.0 | 0.00 | 0.00 | 0.00 | 21 | |
| 20260506235806 | 55 | 0 | 5.0 | 11.0 | 0.00 | 0.00 | 0.00 | 21 | |
| 20260506235306 | 54 | 344 | 5.0 | 15.0 | 0.00 | 0.00 | 0.00 | 22 | |
| 20260506234759 | 53 | 331 | 13.0 | 17.0 | 0.00 | 0.00 | 0.00 | 22 | |
| 20260506234256 | 54 | 338 | 9.0 | 15.0 | 0.00 | 0.00 | 0.00 | 21 | |
| 20260506233754 | 53 | 347 | 7.0 | 14.0 | 0.00 | 0.00 | 0.00 | 22 | |
| 20260506233250 | 53 | 330 | 12.0 | 23.0 | 0.00 | 0.00 | 0.00 | 21 | |
| 20260506232747 | 54 | 0 | 8.0 | 21.0 | 0.00 | 0.00 | 0.00 | 21 | |
| 20260506232247 | 55 | 342 | 21.0 | 21.0 | 0.00 | 0.00 | 0.00 | 21 | |
| 20260506231745 | 54 | 330 | 8.0 | 8.0 | 0.00 | 0.00 | 0.00 | 21 | |
| 20260506231243 | 53 | 326 | 11.0 | 17.0 | 0.00 | 0.00 | 0.00 | 22 | |
| 20260506230740 | 56 | 311 | 18.0 | 24.0 | 0.00 | 0.00 | 0.00 | 21 | |
| 20260506230237 | 54 | 316 | 6.0 | 10.0 | 0.00 | 0.00 | 0.00 | 22 | |
| 20260506225733 | 54 | 335 | 16.0 | 17.0 | 0.00 | 0.00 | 0.00 | 21 | |
| 20260506225230 | 54 | 336 | 13.0 | 22.0 | 0.00 | 0.00 | 0.00 | 21 | |
| 20260506224727 | 54 | 297 | 12.0 | 21.0 | 0.00 | 0.00 | 0.00 | 22 | |
| 20260506224224 | 55 | 314 | 8.0 | 21.0 | 0.00 | 0.00 | 0.00 | 22 | |
| 20260506223720 | 54 | 56 | 4.0 | 7.0 | 0.00 | 0.00 | 0.00 | 21 | |
| 20260506223216 | 52 | 334 | 6.0 | 11.0 | 0.00 | 0.00 | 0.00 | 22 | |
| 20260506222713 | 54 | 334 | 13.0 | 20.0 | 0.00 | 0.00 | 0.00 | 20 | |
| 20260506222208 | 55 | 326 | 18.0 | 21.0 | 0.00 | 0.00 | 0.00 | 21 | |
| 20260506221707 | 54 | 296 | 16.0 | 19.0 | 0.00 | 0.00 | 0.00 | 22 | |
| 20260506221205 | 54 | 280 | 6.0 | 13.0 | 0.00 | 0.00 | 0.00 | 22 | |
| 20260506220701 | 54 | 13 | 14.0 | 15.0 | 0.00 | 0.00 | 0.00 | 22 | |
| 20260506220156 | 54 | 234 | 7.0 | 13.0 | 0.00 | 0.00 | 0.00 | 23 | |
| 20260506215653 | 54 | 314 | 6.0 | 15.0 | 0.00 | 0.00 | 0.00 | 23 | |
| 20260506215148 | 53 | 311 | 8.0 | 19.0 | 0.00 | 0.00 | 0.00 | 22 | |
| 20260506214646 | 54 | 336 | 15.0 | 23.0 | 0.00 | 0.00 | 0.00 | 20 | |
| 20260506214143 | 53 | 344 | 5.0 | 7.0 | 0.00 | 0.00 | 0.00 | 23 | |
| 20260506213641 | 53 | 295 | 3.0 | 9.0 | 0.00 | 0.00 | 0.00 | 23 | |
| 20260506213138 | 53 | 325 | 9.0 | 31.0 | 0.00 | 0.00 | 0.00 | 23 | |
| 20260506212635 | 53 | 352 | 6.0 | 13.0 | 0.00 | 0.00 | 0.00 | 23 | |
| 20260506212130 | 53 | 295 | 8.0 | 22.0 | 0.00 | 0.00 | 0.00 | 24 | |
| 20260506211626 | 52 | 336 | 15.0 | 20.0 | 0.00 | 0.00 | 0.00 | 24 | |
| 20260506211123 | 53 | 329 | 14.0 | 19.0 | 0.00 | 0.00 | 0.00 | 22 | |
| 20260506210620 | 53 | 324 | 12.0 | 17.0 | 0.00 | 0.00 | 0.00 | 23 | |
| 20260506210116 | 52 | 305 | 2.0 | 20.0 | 0.00 | 0.00 | 0.00 | 24 | |
| 20260506205613 | 52 | 296 | 5.0 | 15.0 | 0.00 | 0.00 | 0.00 | 24 | |
| 20260506205108 | 53 | 351 | 9.0 | 11.0 | 0.00 | 0.00 | 0.00 | 24 | |
| 20260506204606 | 51 | 313 | 9.0 | 21.0 | 0.00 | 0.00 | 0.00 | 24 |